Theta_e
320 325 325 324 326 326 326 325 324 326 328 325 327 334 347 351 353 358 346 344 342 342 342 339 336 345 343 341 332 330 332 323 322 325 329 335 336 337 337 336 338 339 339 338 337 338 337 335 336
320 324 323 325 325 325 328 326 329 329 328 326 331 342 345 351 347 347 346 344 342 340 339 341 333 342 341 336 334 334 330 324 324 326 331 333 334 335 336 337 337 337 336 338 339 341 335 335 335
321 319 325 326 326 327 328 326 330 331 336 337 343 345 349 353 346 345 345 343 341 339 336 335 331 338 338 336 336 335 328 324 322 324 325 330 335 334 337 337 336 337 338 338 338 335 333 334 335
324 324 325 326 326 325 324 325 329 336 336 339 342 351 350 347 348 346 344 342 341 338 336 329 330 335 336 337 336 331 325 322 319 317 323 335 337 335 336 337 337 337 336 332 332 332 331 332 334
322 324 327 326 325 323 321 323 325 331 334 341 346 354 352 346 345 345 343 341 340 338 337 334 326 328 332 331 325 322 321 318 318 320 323 334 337 335 336 337 336 334 332 331 330 331 332 333 333
323 323 328 326 321 319 318 319 322 324 327 332 346 351 349 343 344 344 343 342 341 339 338 337 326 325 324 323 321 319 318 317 319 322 326 330 335 335 335 333 332 331 330 330 329 330 331 333 334
322 323 327 325 320 316 314 317 317 318 318 317 340 348 345 347 344 344 344 342 342 341 339 339 338 333 326 324 321 318 317 319 322 322 324 328 333 334 333 332 331 330 330 330 330 329 329 328 331
322 323 324 324 317 313 313 316 315 315 313 314 316 320 325 317 345 344 343 343 342 341 341 340 339 338 338 333 324 320 318 320 324 324 322 326 330 332 333 331 329 330 329 329 330 328 325 325 327
320 321 319 314 313 311 313 315 313 314 313 312 311 312 312 314 322 342 344 342 342 342 341 341 340 340 340 338 333 325 321 323 326 328 323 323 330 334 333 332 329 330 330 329 329 327 323 323 326
316 316 311 309 311 310 310 312 312 314 313 312 314 314 313 314 316 322 324 337 342 342 342 342 341 341 340 338 337 336 333 329 331 333 333 331 329 331 331 332 328 330 331 329 329 329 324 329 330
310 310 309 309 309 310 310 311 312 313 312 313 314 314 314 314 314 316 318 321 328 341 342 341 342 342 340 337 339 338 335 332 331 333 335 335 335 331 330 331 330 332 331 332 331 329 332 335 334
308 308 308 308 309 309 310 311 310 312 313 313 313 313 313 313 314 313 315 316 320 323 328 335 341 343 342 340 339 338 338 336 333 332 335 335 336 334 329 329 331 333 333 334 333 334 335 337 336
308 307 308 307 309 309 309 309 310 312 311 311 311 312 313 312 312 313 313 314 315 316 318 322 331 340 342 343 341 339 339 338 335 333 333 333 333 335 333 330 331 333 333 335 335 335 337 337 337
308 308 308 308 307 308 308 308 310 311 310 311 311 312 312 312 311 312 312 313 313 314 316 320 323 331 340 342 341 342 341 339 338 336 332 333 332 333 334 333 332 331 332 333 334 334 335 336 337
308 308 308 307 306 306 307 308 310 309 309 310 310 311 311 311 311 311 311 312 312 314 315 317 321 324 335 341 343 341 340 341 340 338 337 334 332 331 333 334 333 331 331 332 332 333 334 334 335
307 308 308 307 306 305 307 307 309 308 308 309 309 310 310 310 310 310 310 310 311 312 314 315 319 322 326 337 339 342 342 339 341 340 339 337 334 331 331 331 333 333 332 332 332 331 331 331 332
307 308 307 307 306 306 307 307 309 308 308 309 309 310 310 310 309 310 310 310 310 311 312 314 316 318 320 328 335 340 341 341 339 340 339 339 337 334 331 328 328 333 333 332 331 331 330 329 330
307 307 306 307 306 306 306 306 309 309 309 309 309 309 309 310 309 309 309 309 309 310 311 312 313 315 317 317 326 336 340 341 341 339 340 339 338 337 334 329 328 329 331 331 332 332 331 330 329
305 305 306 305 305 306 306 308 310 311 311 311 310 308 308 309 308 307 308 309 309 309 309 310 312 312 314 316 316 321 328 331 338 340 340 338 338 338 337 334 330 329 328 329 331 332 332 331 329
304 304 305 304 304 306 306 309 310 310 310 310 309 308 308 308 308 307 307 308 308 308 308 308 310 310 312 313 316 316 317 326 333 338 338 338 337 338 338 336 334 331 329 329 330 332 331 330 329
302 303 302 303 304 305 306 308 310 310 310 307 308 307 307 308 308 307 306 306 306 306 306 307 308 308 310 311 313 316 320 322 329 336 337 338 338 338 337 337 336 334 332 329 330 331 331 329 328
303 300 301 302 305 307 306 307 308 309 307 305 304 305 306 307 307 307 307 306 306 306 305 305 306 307 307 309 311 313 316 319 320 321 323 331 337 337 337 337 336 336 334 332 329 330 329 330 326
300 301 302 303 306 307 306 308 309 307 307 304 303 303 304 305 306 306 306 306 306 306 306 305 304 305 306 307 308 310 312 313 313 317 319 323 330 335 336 337 335 336 335 335 333 330 330 328 328
301 303 304 306 307 311 306 305 308 307 306 304 303 303 303 303 304 305 305 305 305 305 305 305 303 303 304 305 307 308 309 310 312 313 315 318 321 325 335 335 336 335 335 335 335 334 332 331 328
303 304 310 309 312 310 305 304 306 304 304 304 303 303 303 303 304 304 305 305 305 304 304 305 304 302 302 303 304 306 307 308 309 311 311 313 315 318 323 328 333 334 335 335 336 335 334 333 332
301 304 312 313 307 304 302 302 310 304 305 305 304 305 303 303 304 303 305 305 305 304 303 304 303 302 301 302 302 304 306 306 307 308 309 311 313 314 317 321 324 333 333 335 334 334 334 334 334
301 306 302 305 302 305 303 303 304 302 303 304 303 303 304 304 304 303 306 306 304 303 303 304 303 301 301 301 301 301 304 305 306 306 308 309 310 311 313 315 321 325 331 333 330 333 334 333 334
302 302 305 305 307 308 302 301 303 302 302 303 304 304 304 305 305 305 306 306 304 303 303 304 303 301 301 301 300 300 301 303 305 306 306 306 309 309 310 313 317 319 324 328 333 333 333 333 333
300 302 301 303 305 307 304 303 302 301 303 304 305 305 305 305 305 305 305 306 304 303 303 303 303 302 301 300 300 300 300 301 303 305 305 305 305 308 309 311 313 315 316 319 323 329 333 333 333
299 300 301 305 305 302 302 302 301 302 303 304 304 304 304 304 305 304 305 304 304 303 302 303 302 301 300 299 299 299 300 300 301 302 303 304 304 305 307 309 310 313 314 314 317 319 323 332 333
Wind_Speed
12 9 6 6 4 5 11 8 2 8 2 4 4 4 14 16 10 5 6 5 18 20 18 16 14 19 22 22 23 23 22 21 22 21 21 21 20 20 22 22 21 21 21 21 21 20 20 22 21
10 6 4 3 5 8 11 12 12 9 8 3 3 6 11 11 14 6 7 15 18 19 18 16 17 20 21 22 22 21 19 19 19 20 20 20 20 20 22 23 21 21 21 21 20 19 21 21 20
4 3 3 2 8 10 11 14 12 8 10 7 6 13 10 9 13 5 11 18 18 18 18 18 18 19 21 21 20 19 17 17 18 18 19 20 20 20 22 23 22 20 20 20 19 19 19 20 20
2 4 3 11 17 14 16 14 14 5 12 14 6 14 9 23 8 7 14 16 16 17 16 22 19 18 19 19 18 16 16 15 17 18 19 21 20 21 23 23 22 20 19 19 18 19 19 19 19
0 2 8 15 17 14 17 15 18 19 10 15 16 15 9 16 14 11 13 13 13 14 14 17 19 18 17 17 16 15 15 16 16 17 19 21 21 22 23 22 21 21 18 15 17 18 18 18 18
3 3 13 12 16 14 16 15 16 19 20 23 16 14 10 13 13 8 9 11 11 12 14 13 17 17 16 15 15 15 15 16 16 16 18 20 21 22 21 21 20 18 15 15 17 17 17 17 15
6 5 14 14 13 16 17 11 18 20 21 25 14 16 12 22 13 7 7 10 11 12 12 12 11 12 13 14 13 14 15 15 16 16 16 19 20 20 20 19 16 16 15 15 16 16 15 14 13
3 8 14 7 11 10 14 12 14 19 23 11 16 11 10 25 12 7 6 8 9 10 11 12 11 9 9 10 12 12 13 14 15 14 15 17 18 18 18 16 14 13 13 14 15 14 13 13 13
2 6 11 9 10 10 13 7 11 13 21 24 19 18 17 21 24 12 7 7 6 7 7 8 10 10 11 11 11 12 12 14 15 14 14 14 12 14 15 11 14 12 11 13 14 13 13 13 12
6 9 7 6 13 15 20 18 9 16 21 21 22 24 24 24 25 23 24 14 2 3 4 6 8 9 10 10 12 11 11 11 12 12 13 12 11 12 13 12 14 11 10 13 14 12 12 11 8
7 9 10 11 7 4 9 21 22 7 18 19 19 19 24 26 27 25 23 21 18 11 4 6 7 9 10 11 12 12 13 12 13 14 14 12 12 12 13 12 12 10 10 11 13 12 10 8 8
16 13 12 12 10 11 13 16 22 21 16 14 15 18 23 26 25 25 23 22 21 21 18 11 9 11 11 12 14 13 14 15 15 16 17 14 14 13 14 14 15 13 13 12 13 12 10 9 8
22 17 16 15 16 15 13 19 18 17 15 17 17 20 22 23 23 22 22 22 22 23 23 21 15 11 14 16 15 16 17 17 16 17 18 18 16 15 16 15 16 16 14 13 13 12 11 10 9
18 19 16 10 12 10 15 14 12 13 13 15 17 18 19 22 23 23 25 23 23 22 23 22 19 18 16 18 18 17 18 18 18 18 19 21 19 17 18 17 17 16 15 14 14 12 12 11 10
12 15 15 15 6 6 10 17 13 11 12 14 16 16 17 21 22 23 23 23 23 22 21 22 20 19 17 19 20 22 21 19 19 20 20 22 22 20 19 19 19 18 16 16 14 14 13 12 11
5 2 4 12 9 6 9 8 8 10 11 14 15 14 15 19 21 23 23 22 22 23 24 22 21 19 18 16 15 23 23 24 22 21 20 23 23 22 21 21 21 20 19 17 16 16 15 14 14
4 6 7 6 13 2 3 8 6 8 10 11 13 14 14 15 23 23 23 23 23 24 24 24 23 23 22 18 17 19 26 28 29 23 22 21 24 24 23 23 23 21 22 21 19 18 18 16 16
8 8 7 6 9 6 9 9 7 6 8 10 11 13 14 15 18 22 22 23 23 24 24 24 23 24 22 19 15 17 20 25 29 29 23 22 22 24 25 25 25 23 24 24 22 21 19 18 17
10 9 9 6 6 1 5 7 6 6 7 9 11 12 14 14 18 21 22 22 23 24 26 25 25 26 23 22 23 16 16 16 24 25 27 28 27 24 27 27 26 26 27 27 24 22 22 19 17
7 8 7 4 6 2 2 6 5 5 6 8 10 11 13 14 18 23 25 24 25 25 25 26 25 25 22 22 19 15 23 18 19 25 31 32 29 32 29 30 29 28 27 27 27 25 23 23 20
11 8 4 3 3 3 1 5 3 4 3 6 9 10 12 13 15 20 22 24 24 26 26 26 25 25 23 23 20 20 17 15 14 12 21 34 34 32 37 33 32 29 28 28 28 27 27 25 23
5 6 1 2 5 1 3 1 5 2 3 8 10 11 12 14 15 18 21 22 23 23 24 25 25 23 23 23 22 22 19 18 18 23 24 21 31 37 35 35 31 33 29 28 28 27 28 27 27
5 4 1 2 3 6 5 4 8 3 2 5 8 11 13 14 14 17 18 18 20 21 22 24 25 23 23 23 22 21 20 20 21 21 23 22 17 25 30 33 28 31 30 29 27 26 28 29 29
5 3 4 4 2 3 3 5 7 2 4 3 4 9 12 14 15 16 15 15 17 20 21 21 25 24 23 23 22 21 21 22 22 22 22 22 22 21 24 28 31 33 29 29 28 28 30 30 30
2 3 1 2 3 2 2 5 7 3 5 7 8 10 13 15 14 16 16 15 15 18 19 21 23 24 24 23 23 22 21 20 21 20 22 25 25 24 18 17 25 24 27 26 26 27 29 31 32
7 4 2 3 2 2 3 2 3 6 7 8 10 12 16 16 14 16 13 13 15 16 17 18 21 23 23 24 24 22 22 21 20 21 21 20 22 23 21 25 17 24 27 25 27 28 30 30 32
3 4 2 1 0 4 2 2 5 2 4 7 11 15 17 15 14 14 13 12 13 14 16 17 19 21 23 23 23 23 22 22 22 21 19 20 20 22 23 22 20 15 18 29 30 28 32 33 31
5 3 2 2 1 3 4 5 1 3 7 10 12 12 11 12 12 14 14 11 12 13 15 16 18 19 21 22 23 23 23 23 22 21 21 21 21 22 23 23 21 18 14 17 25 33 36 34 34
3 3 2 1 2 2 4 2 3 2 6 10 10 10 10 10 11 14 13 11 12 12 14 16 18 20 22 22 23 24 24 23 22 22 22 21 21 21 21 21 22 20 20 18 16 16 32 32 32
1 3 4 3 2 3 4 4 6 1 5 6 7 7 9 9 10 13 10 10 13 11 13 15 18 21 21 21 22 23 23 24 23 23 23 23 22 21 20 20 20 21 19 18 17 19 22 26 34
Wind_Direction
337 330 306 247 196 109 70 33 19 15 42 18 334 330 61 33 4 37 95 113 138 138 142 141 151 155 163 162 156 153 151 147 143 141 137 136 133 128 123 120 122 124 120 118 116 116 117 119 118
340 345 248 266 189 123 66 28 31 25 3 320 127 175 50 65 32 89 114 134 138 138 139 138 150 159 164 163 159 157 153 149 144 144 142 141 137 133 129 126 125 120 123 119 120 118 118 121 118
350 340 280 87 68 66 61 30 12 61 51 43 109 49 38 356 11 38 123 140 140 139 140 151 150 160 164 166 162 160 155 152 148 148 147 142 138 135 130 129 129 131 123 125 121 123 124 123 120
360 192 212 105 97 70 50 28 22 59 47 25 133 79 101 26 1 53 132 139 139 139 142 150 153 155 163 166 165 163 158 156 153 151 149 142 139 137 134 132 133 133 128 122 126 127 125 125 125
298 229 112 100 84 65 56 30 31 50 51 33 77 74 64 16 38 93 126 136 138 135 140 148 158 157 163 168 167 165 161 157 155 153 150 148 145 142 139 140 138 136 132 130 131 133 131 129 130
142 275 137 105 86 50 47 29 33 41 52 30 51 77 66 21 39 58 124 132 138 136 138 148 160 161 166 170 168 164 162 160 157 155 153 153 152 148 146 145 142 138 137 136 137 136 136 135 135
75 73 102 118 88 44 16 26 34 45 34 31 27 60 49 25 21 62 122 137 141 142 143 146 151 163 169 170 169 165 165 163 160 158 159 159 158 155 151 148 145 140 135 135 138 139 139 140 143
58 111 113 72 75 43 4 54 42 51 45 51 25 36 8 345 25 49 100 130 135 143 146 151 154 155 157 167 173 170 169 167 164 161 161 162 162 160 158 154 151 146 144 143 143 141 139 141 140
291 111 97 65 49 50 24 62 53 72 62 50 52 42 28 23 24 37 111 129 132 148 155 161 165 168 168 167 175 175 174 173 171 166 164 161 165 165 169 171 166 156 153 156 148 141 141 141 141
75 88 67 54 103 79 53 51 39 73 45 35 36 35 35 37 36 29 24 11 175 169 186 191 186 185 181 178 176 175 179 179 178 177 173 169 177 180 180 189 181 172 161 162 158 150 141 126 141
52 91 104 57 107 50 60 58 41 42 40 33 27 25 32 37 34 32 28 19 -0 336 241 237 219 208 201 198 191 189 188 190 193 192 191 193 187 193 192 193 192 190 173 166 166 168 162 164 162
101 78 68 65 120 83 77 76 61 54 55 37 38 32 34 35 34 27 23 20 8 1 7 341 263 231 221 212 209 207 201 199 197 200 198 202 198 196 197 198 198 201 197 189 186 188 189 182 174
95 103 84 90 87 84 81 71 69 46 35 36 33 36 35 33 32 29 21 19 14 12 -0 347 325 282 241 229 224 216 213 209 207 203 205 204 208 209 205 205 205 205 206 208 205 202 198 194 189
110 95 79 69 71 65 73 63 54 42 27 32 31 32 35 32 28 24 19 14 11 8 2 353 337 305 275 237 234 233 226 219 210 212 211 208 210 214 214 213 212 213 212 213 218 218 212 209 204
112 112 80 41 70 56 306 42 45 32 39 39 37 28 28 31 29 26 15 10 5 3 1 360 352 337 291 260 238 233 237 231 227 218 214 213 212 214 215 221 220 219 219 216 217 223 226 225 219
127 126 151 46 28 14 221 74 53 31 40 44 37 36 29 25 27 22 17 10 5 1 360 359 359 351 343 301 268 243 241 233 232 231 226 217 214 216 217 221 226 224 220 221 222 220 222 227 228
38 101 77 102 28 24 352 115 77 55 50 54 46 36 30 26 20 18 15 12 7 3 358 359 360 356 351 341 293 272 248 237 237 232 231 230 220 216 219 223 225 225 225 223 222 224 223 225 229
125 116 85 63 24 44 74 97 92 73 56 51 44 34 28 24 19 12 11 12 8 4 2 360 359 357 352 348 336 281 269 251 242 236 228 230 230 223 222 224 227 222 224 227 224 225 227 229 230
102 107 116 87 29 316 78 97 90 69 46 41 34 30 28 25 20 13 12 12 11 9 3 2 358 356 356 352 352 339 310 307 261 246 231 234 234 233 228 227 226 225 225 224 225 226 228 230 231
97 105 94 95 25 275 63 107 92 57 57 42 25 34 26 18 15 13 9 10 11 9 7 2 359 357 356 350 343 332 324 303 284 263 246 241 240 240 230 228 228 225 226 226 222 220 225 230 226
64 54 59 32 23 80 179 157 141 82 72 27 28 26 30 26 12 8 8 8 8 10 6 3 0 357 355 353 346 340 336 336 328 288 266 247 245 240 234 228 228 229 224 225 224 222 221 226 228
94 15 295 232 240 87 312 99 171 77 87 40 34 27 21 16 16 10 3 3 7 7 5 2 360 1 358 356 352 348 344 337 327 315 301 322 249 246 241 233 228 228 227 228 225 224 227 226 231
46 322 279 202 157 184 58 253 104 211 225 29 33 27 19 14 7 4 2 357 355 358 -0 359 359 358 0 360 356 350 344 338 332 329 327 313 330 245 242 238 236 230 228 230 232 230 225 227 232
331 174 149 167 214 204 88 330 126 33 340 287 341 2 2 1 355 349 354 351 351 350 353 356 357 358 358 359 358 353 347 340 338 339 336 336 335 317 278 237 234 226 228 229 233 235 236 233 233
50 197 169 204 208 31 87 278 38 309 274 290 315 325 338 341 343 334 341 346 347 350 349 349 353 354 355 356 355 355 350 344 338 339 336 335 337 335 317 314 250 239 233 233 235 237 237 235 235
44 16 30 282 291 350 195 242 93 306 278 276 282 303 322 328 328 326 330 334 343 351 351 349 349 349 353 354 353 351 352 348 343 338 334 333 333 328 323 317 335 245 250 241 241 239 240 237 235
55 61 20 129 53 263 165 139 228 12 323 311 325 322 327 330 334 325 328 332 339 350 355 350 348 348 350 351 350 349 347 348 346 342 338 332 330 328 324 324 319 295 278 252 258 252 242 238 236
35 96 187 73 254 262 220 255 265 14 343 341 338 342 340 341 340 340 331 331 335 343 350 351 351 349 347 348 348 346 344 342 343 344 342 337 331 329 327 327 323 322 302 309 257 247 245 236 234
156 152 106 132 291 288 301 168 130 31 347 344 346 348 343 339 338 334 328 330 328 335 347 351 350 348 346 346 345 344 342 341 340 342 342 340 336 333 329 326 323 322 329 318 314 289 241 237 234
273 198 197 240 158 256 301 288 140 89 334 338 340 347 346 340 339 338 335 331 339 336 343 349 350 348 344 342 342 341 339 340 339 337 338 340 338 335 332 330 329 326 328 335 332 319 299 257 232